Location: Unspecified
(0.0000°N, 0.0000°E)
Time: 14:00:54
(UTC+00:00)

Hubble Space Telescope - Pass Details

Date: 19 May 2022
Orbit: 533 x 537 km, 28.5° (Epoch: 19 May)

Event Time Altitude Azimuth Distance (km) Brightness Sun altitude
Rises 19:59:09 0° 300° (WNW) 2,656 5.5 -28.6°
Reaches altitude 10° 20:01:24 10° 300° (WNW) 1,769 4.3 -29.2°
Enters shadow 20:03:31 30° 299° (WNW) 974 2.6 -29.7°
